Stations météo

réclame
Mon MeteoGroup
Schleswig-Jagel, Allemagne (10037): Température de l'air & dewpoint: 05.12.2018 00:00:00 - 11.12.2018 00:00:00 (CET)Schleswig-Jagel, Allemagne (10037): Vitesse du vent & gusts: 05.12.2018 00:00:00 - 11.12.2018 00:00:00 (CET)Schleswig-Jagel, Allemagne (10037): Direction du vent: 05.12.2018 00:00:00 - 11.12.2018 00:00:00 (CET)Schleswig-Jagel, Allemagne (10037): reduced air pressure: 05.12.2018 00:00:00 - 11.12.2018 00:00:00 (CET)Schleswig-Jagel, Allemagne (10037): visibility: 05.12.2018 00:00:00 - 11.12.2018 00:00:00 (CET)
Date & Time tt [°C] td [°C] ff [km/h] ff [knt] fx [km/h] fx [knt] dd ppp [hPa] vv [km]
11.12.2018 00:00:00 - - - - - - - - -
10.12.2018 23:00:00 4,4 1,7 29 16 - - NW 1011,9 6
10.12.2018 22:00:00 4,5 1,7 22 12 - - NW 1011,7 6
10.12.2018 21:00:00 4,2 1,6 25 14 - - NW 1011,3 6
10.12.2018 20:00:00 4,2 1,7 22 12 - - NW 1010,8 6
10.12.2018 19:00:00 4,5 2,0 25 14 - - NW 1010,2 6
10.12.2018 18:00:00 5,7 2,0 29 16 65 35 NW 1009,9 6
10.12.2018 17:00:00 5,8 1,8 29 16 65 35 NW 1009,5 7
10.12.2018 16:00:00 5,3 1,7 32 18 - - NW 1009,2 20
10.12.2018 15:00:00 5,8 1,5 36 19 54 29 WNW 1008,5 20
10.12.2018 14:00:00 5,1 1,9 40 21 68 37 NW 1008,7 12
10.12.2018 13:00:00 4,6 1,4 52 28 - - NW 1008,5 10
10.12.2018 12:00:00 5,0 1,5 40 21 61 33 WNW 1009,1 11
10.12.2018 11:00:00 4,6 0,8 29 16 65 35 WNW 1009,4 15
10.12.2018 10:00:00 4,2 1,4 25 14 - - WNW 1009,0 10
10.12.2018 09:00:00 4,1 0,5 25 14 47 25 WNW 1008,6 12
10.12.2018 08:00:00 4,2 0,6 25 14 47 25 WNW 1008,0 12
10.12.2018 07:00:00 4,4 -0,2 36 19 - - WNW 1007,3 10
10.12.2018 06:00:00 4,3 0,8 40 21 58 31 NW 1006,9 10
10.12.2018 05:00:00 4,4 -0,3 29 16 47 25 WNW 1006,2 7
10.12.2018 04:00:00 4,7 0,0 29 16 - - WNW 1005,8 7
10.12.2018 03:00:00 4,4 1,0 25 14 - - WNW 1005,4 6
10.12.2018 02:00:00 4,7 1,5 32 18 50 27 WNW 1004,6 6
10.12.2018 01:00:00 4,9 1,7 40 21 - - NW 1004,0 6
10.12.2018 00:00:00 5,0 1,6 36 19 68 37 NW 1002,9 7
09.12.2018 23:00:00 5,2 1,3 29 16 - - NW 1002,2 7
09.12.2018 22:00:00 5,3 1,9 29 16 - - NW 1001,0 6
09.12.2018 21:00:00 6,0 1,9 32 18 72 39 WNW 999,7 7
09.12.2018 20:00:00 6,2 2,3 36 19 58 31 NW 998,0 6
09.12.2018 19:00:00 5,9 2,4 32 18 - - NW 996,5 5
09.12.2018 18:00:00 6,4 2,8 36 19 58 31 WNW 995,0 6
09.12.2018 17:00:00 6,5 3,1 36 19 50 27 WNW 993,2 6
09.12.2018 16:00:00 7,3 3,8 36 19 - - WNW 991,9 6
09.12.2018 15:00:00 7,1 4,6 32 18 47 25 WNW 990,8 4,1
09.12.2018 14:00:00 7,3 4,5 29 16 54 29 WNW 989,5 6
09.12.2018 13:00:00 7,4 5,8 32 18 - - W 988,7 5
09.12.2018 12:00:00 7,7 5,3 32 18 50 27 W 988,4 2,1
09.12.2018 11:00:00 6,3 4,8 18 10 - - WSW 987,9 5
09.12.2018 10:00:00 6,2 4,7 18 10 - - W 987,3 5
09.12.2018 09:00:00 6,6 5,1 25 14 - - W 986,2 4,5
09.12.2018 08:00:00 6,8 5,1 25 14 - - W 985,3 3,6
09.12.2018 07:00:00 6,4 4,7 22 12 - - WSW 984,6 5
09.12.2018 06:00:00 6,6 4,8 25 14 - - WSW 984,1 5
09.12.2018 05:00:00 6,8 5,5 25 14 - - WSW 983,6 4,0
09.12.2018 04:00:00 6,9 5,5 25 14 - - - 983,5 3,3
09.12.2018 03:00:00 6,7 5,5 22 12 - - WSW 983,4 4,7
09.12.2018 02:00:00 6,4 5,2 18 10 - - SW 983,6 5
09.12.2018 01:00:00 6,7 5,2 25 14 - - SW 984,1 5
09.12.2018 00:00:00 7,1 5,1 25 14 - - SW 985,0 4,9
08.12.2018 23:00:00 7,2 4,8 32 18 50 27 SW 986,1 4,8
08.12.2018 22:00:00 7,4 5,1 36 19 - - SW 986,7 4,3
08.12.2018 21:00:00 7,5 5,6 43 23 68 37 WSW 987,7 2,0
08.12.2018 20:00:00 7,8 5,8 43 23 58 31 WSW 988,1 4,1
08.12.2018 19:00:00 8,1 6,1 43 23 - - WSW 988,5 2,7
08.12.2018 18:00:00 8,2 6,3 43 23 68 37 WSW 988,4 4,0
08.12.2018 17:00:00 8,1 6,0 43 23 65 35 WSW 988,4 4,7
08.12.2018 16:00:00 8,3 6,1 47 25 - - WSW 988,2 4,7
08.12.2018 15:00:00 8,2 6,2 43 23 58 31 WSW 988,5 4,9
08.12.2018 14:00:00 8,1 6,4 43 23 61 33 WSW 988,9 2,4
08.12.2018 13:00:00 7,6 6,3 43 23 - - WSW 989,2 0,9
08.12.2018 12:00:00 7,4 5,9 47 25 68 37 SW 989,6 2,0
08.12.2018 11:00:00 7,2 5,4 43 23 68 37 SW 990,3 2,8
08.12.2018 10:00:00 7,0 4,8 43 23 - - SW 990,9 6
08.12.2018 09:00:00 6,7 4,6 43 23 76 41 SW 991,7 3,6
08.12.2018 08:00:00 6,5 4,1 47 25 72 39 SW 992,1 1,3
08.12.2018 07:00:00 6,1 3,9 43 23 - - SW 992,2 2,8
08.12.2018 06:00:00 5,6 3,8 36 19 58 31 SW 993,1 2,6
08.12.2018 05:00:00 5,6 3,3 32 18 50 27 SW 994,0 7
08.12.2018 04:00:00 5,8 3,5 32 18 - - SW 994,4 7
08.12.2018 03:00:00 6,2 2,6 32 18 50 27 WSW 994,5 9
08.12.2018 02:00:00 6,6 3,6 25 14 - - WSW 994,3 7
08.12.2018 01:00:00 6,9 4,2 25 14 - - WSW 993,7 7
08.12.2018 00:00:00 6,7 4,0 36 19 50 27 W 993,2 8
07.12.2018 23:00:00 7,1 5,1 29 16 47 25 W 992,5 7
07.12.2018 22:00:00 7,4 6,3 36 19 - - W 991,6 4,6
07.12.2018 21:00:00 9,9 8,7 29 16 - - SW 989,8 3,8
07.12.2018 20:00:00 10,2 8,9 25 14 - - SSW 990,2 3,9
07.12.2018 19:00:00 10,2 9,3 29 16 - - SSW 991,1 3,9
07.12.2018 18:00:00 10,7 9,2 29 16 47 25 SSW 992,2 3,7
07.12.2018 17:00:00 10,8 9,6 29 16 47 25 SSW 993,4 7
07.12.2018 16:00:00 10,8 9,6 32 18 - - SW 994,4 2,0
07.12.2018 15:00:00 11,1 9,9 32 18 54 29 SW 995,5 7
07.12.2018 14:00:00 10,8 10,0 29 16 47 25 SW 997,0 2,0
07.12.2018 13:00:00 10,8 10,0 22 12 - - SSW 998,2 3,1
07.12.2018 12:00:00 10,8 10,0 25 14 - - SW 999,7 6
07.12.2018 11:00:00 10,7 10,1 22 12 - - SW 1001,1 1,6
07.12.2018 10:00:00 10,5 10,0 18 10 - - SSW 1002,2 1,7
07.12.2018 09:00:00 9,6 9,1 11 6 - - SSW 1003,1 1,5
07.12.2018 08:00:00 9,2 8,7 18 10 - - SW 1004,1 3,0
07.12.2018 07:00:00 9,2 8,8 14 8 - - SW 1004,6 3,2
07.12.2018 06:00:00 9,1 8,6 18 10 - - WSW 1005,5 1,1
07.12.2018 05:00:00 9,2 8,6 22 12 - - WSW 1005,6 0,4
07.12.2018 04:00:00 9,5 8,9 22 12 - - WSW 1005,8 4,6
07.12.2018 03:00:00 9,8 9,0 25 14 - - W 1006,0 2,6
07.12.2018 02:00:00 9,7 8,9 32 18 47 25 WSW 1006,1 2,1
07.12.2018 01:00:00 9,8 8,9 40 21 - - WSW 1006,2 1,3
07.12.2018 00:00:00 9,8 9,0 32 18 47 25 WSW 1006,6 1,8
06.12.2018 23:00:00 9,5 8,7 32 18 47 25 WSW 1007,5 2,2
06.12.2018 22:00:00 9,6 8,8 32 18 - - SW 1007,6 1,9
06.12.2018 21:00:00 9,6 8,7 32 18 54 29 SW 1008,5 1,5
06.12.2018 20:00:00 9,8 9,0 32 18 47 25 WSW 1009,1 2,0
06.12.2018 19:00:00 9,5 8,9 22 12 - - WSW 1009,8 2,1
06.12.2018 18:00:00 9,2 8,4 25 14 - - WSW 1010,1 1,5
06.12.2018 17:00:00 9,2 8,6 28 15 - - WSW 1010,2 4,0
06.12.2018 16:00:00 9,0 8,6 24 13 - - WSW 1010,3 2,5
06.12.2018 15:00:00 8,2 7,7 22 12 - - SW 1010,5 0,5
06.12.2018 14:00:00 7,2 6,6 14 8 - - SSW 1010,6 1,5
06.12.2018 13:00:00 6,6 6,0 11 6 - - SSW 1011,4 0,9
06.12.2018 12:00:00 6,1 5,5 14 8 - - S 1011,6 1,0
06.12.2018 11:00:00 5,6 5,0 14 8 - - S 1011,4 1,2
06.12.2018 10:00:00 5,0 4,3 11 6 - - S 1012,2 1,2
06.12.2018 09:00:00 4,8 4,1 15 8 - - S 1012,0 1,2
06.12.2018 08:00:00 4,6 3,7 14 8 - - S 1012,1 2,4
06.12.2018 07:00:00 4,3 3,4 14 8 - - S 1011,9 6
06.12.2018 06:00:00 4,1 3,1 11 6 - - S 1012,1 6
06.12.2018 05:00:00 3,8 2,8 14 8 - - SSE 1012,4 4,7
06.12.2018 04:00:00 3,7 1,8 22 12 - - S 1012,6 2,9
06.12.2018 03:00:00 3,8 1,2 14 8 - - SSE 1013,7 10
06.12.2018 02:00:00 3,5 0,7 18 10 - - SSE 1014,2 11
06.12.2018 01:00:00 3,5 0,4 18 10 - - SSE 1015,1 11
06.12.2018 00:00:00 3,5 0,2 18 10 - - SSE 1016,3 10
05.12.2018 23:00:00 3,5 -0,3 18 10 - - SSE 1017,2 11
05.12.2018 22:00:00 3,4 -0,3 18 10 - - SE 1018,0 11
05.12.2018 21:00:00 2,8 0,4 14 8 - - SE 1018,7 10
05.12.2018 20:00:00 2,3 0,5 14 8 - - SE 1019,4 10
05.12.2018 19:00:00 2,1 0,5 11 6 - - SE 1020,3 7
05.12.2018 18:00:00 1,8 0,6 11 6 - - SE 1020,9 7
05.12.2018 17:00:00 1,8 0,5 7 4 - - SE 1021,8 7
05.12.2018 16:00:00 2,9 1,3 14 8 - - SE 1022,5 9
05.12.2018 15:00:00 4,0 1,7 14 8 - - S 1023,3 10
05.12.2018 14:00:00 4,0 1,7 14 8 - - S 1024,0 12
05.12.2018 13:00:00 3,5 1,5 14 8 - - S 1024,2 12
05.12.2018 12:00:00 3,6 1,3 11 6 - - S 1024,8 20
05.12.2018 11:00:00 3,2 0,9 14 8 - - S 1025,1 25
05.12.2018 10:00:00 1,8 0,2 14 8 - - SSW 1025,2 18
05.12.2018 09:00:00 1,6 0,2 14 8 - - SSW 1025,1 15
05.12.2018 08:00:00 1,9 0,7 11 6 - - SSW 1024,8 12
05.12.2018 07:00:00 1,7 0,7 14 8 - - SSW 1024,5 12
05.12.2018 06:00:00 2,0 1,1 18 10 - - SW 1024,4 9
05.12.2018 05:00:00 2,4 1,4 14 8 - - SW 1024,3 7
05.12.2018 04:00:00 2,5 1,6 14 8 - - SSW 1023,9 8
05.12.2018 03:00:00 2,3 0,9 11 6 - - SSW 1024,0 10
05.12.2018 02:00:00 3,3 1,4 18 10 - - SW 1023,7 11
05.12.2018 01:00:00 0,1 -1,5 4 2 - - WSW 1023,8 12
05.12.2018 00:00:00 1,5 0,1 14 8 - - WSW 1023,6 11

tt = Température de l'air
td = dewpoint
ff = Vitesse du vent
fx = gusts
dd = Direction du vent
ppp = reduced air pressure
vv = visibility

stations d'obs. à proximité